TimeCST,TemperatureF,Dew PointF,Humidity,Sea Level PressureIn,VisibilityMPH,Wind Direction,Wind SpeedMPH,Gust SpeedMPH,PrecipitationIn,Events,Conditions,WindDirDegrees,DateUTC
12:15 AM,33.8,27.5,78,30.35,10.0,NE,5.8,-,N/A,,Overcast,40,2013-02-09 06:15:00
12:35 AM,33.8,27.9,79,30.35,10.0,East,5.8,-,N/A,,Overcast,90,2013-02-09 06:35:00
12:55 AM,33.4,27.5,79,30.35,10.0,East,4.6,-,N/A,,Overcast,100,2013-02-09 06:55:00
1:15 AM,33.1,27.5,80,30.35,10.0,ENE,4.6,-,N/A,,Overcast,70,2013-02-09 07:15:00
1:35 AM,33.3,27.5,79,30.34,10.0,ENE,3.5,-,N/A,,Overcast,70,2013-02-09 07:35:00
1:55 AM,32.9,27.5,81,30.34,10.0,East,6.9,-,N/A,,Overcast,90,2013-02-09 07:55:00
2:15 AM,32.9,27.1,79,30.34,10.0,ENE,8.1,-,N/A,,Overcast,60,2013-02-09 08:15:00
2:35 AM,32.9,27.5,81,30.34,10.0,ENE,4.6,-,N/A,,Overcast,70,2013-02-09 08:35:00
2:55 AM,32.5,27.1,80,30.35,10.0,ENE,5.8,-,N/A,,Overcast,70,2013-02-09 08:55:00
3:15 AM,32.5,27.3,81,30.35,10.0,ENE,3.5,-,N/A,,Overcast,70,2013-02-09 09:15:00
3:35 AM,32.5,27.1,80,30.35,10.0,ENE,4.6,-,N/A,,Overcast,60,2013-02-09 09:35:00
3:55 AM,32.5,27.1,80,30.34,10.0,NE,5.8,-,N/A,,Overcast,50,2013-02-09 09:55:00
4:15 AM,32.5,26.8,79,30.35,10.0,East,4.6,-,N/A,,Overcast,80,2013-02-09 10:15:00
4:35 AM,32.5,27.0,80,30.36,10.0,Calm,Calm,-,N/A,,Overcast,0,2013-02-09 10:35:00
4:55 AM,32.4,26.6,79,30.36,10.0,East,4.6,-,N/A,,Overcast,90,2013-02-09 10:55:00
5:15 AM,32.5,27.1,80,30.36,10.0,NE,3.5,-,N/A,,Overcast,50,2013-02-09 11:15:00
5:35 AM,32.2,26.6,80,30.36,10.0,ENE,5.8,-,N/A,,Overcast,60,2013-02-09 11:35:00
6:15 AM,32.4,26.6,79,30.36,10.0,ENE,5.8,-,N/A,,Overcast,70,2013-02-09 12:15:00
6:35 AM,32.4,27.1,81,30.36,10.0,ENE,3.5,-,N/A,,Overcast,70,2013-02-09 12:35:00
6:55 AM,32.4,27.1,81,30.36,10.0,East,5.8,-,N/A,,Overcast,80,2013-02-09 12:55:00
7:15 AM,32.4,27.1,81,30.36,10.0,East,6.9,-,N/A,,Overcast,90,2013-02-09 13:15:00
7:35 AM,32.4,26.8,80,30.36,10.0,East,6.9,-,N/A,,Overcast,80,2013-02-09 13:35:00
7:55 AM,32.4,26.2,78,30.36,10.0,East,8.1,-,N/A,,Overcast,90,2013-02-09 13:55:00
8:15 AM,32.7,26.4,78,30.37,10.0,East,4.6,-,N/A,,Overcast,90,2013-02-09 14:15:00
8:35 AM,33.1,26.6,77,30.38,10.0,East,3.5,-,N/A,,Overcast,100,2013-02-09 14:35:00
8:55 AM,33.4,27.1,78,30.38,10.0,ESE,5.8,-,N/A,,Overcast,110,2013-02-09 14:55:00
9:15 AM,34.5,27.1,74,30.37,10.0,ESE,8.1,-,N/A,,Mostly Cloudy,120,2013-02-09 15:15:00
9:35 AM,35.6,27.9,73,30.36,10.0,ESE,8.1,-,N/A,,Scattered Clouds,120,2013-02-09 15:35:00
9:55 AM,35.6,27.7,73,30.35,10.0,East,6.9,-,N/A,,Scattered Clouds,100,2013-02-09 15:55:00
10:15 AM,36.9,28.2,71,30.36,10.0,East,5.8,-,N/A,,Clear,90,2013-02-09 16:15:00
10:35 AM,38.3,28.6,68,30.34,10.0,East,8.1,-,N/A,,Clear,100,2013-02-09 16:35:00
10:55 AM,39.2,29.1,67,30.34,10.0,East,9.2,-,N/A,,Clear,100,2013-02-09 16:55:00
11:15 AM,40.5,29.5,65,30.33,10.0,ENE,6.9,-,N/A,,Clear,70,2013-02-09 17:15:00
11:35 AM,41.4,29.7,63,30.31,10.0,ESE,5.8,-,N/A,,Clear,110,2013-02-09 17:35:00
11:55 AM,41.5,29.8,63,30.30,10.0,East,6.9,-,N/A,,Clear,100,2013-02-09 17:55:00
12:15 PM,43.2,29.8,59,30.28,10.0,SSE,4.6,-,N/A,,Clear,160,2013-02-09 18:15:00
12:35 PM,44.1,29.3,56,30.28,10.0,South,5.8,-,N/A,,Clear,170,2013-02-09 18:35:00
12:55 PM,45.1,29.7,55,30.26,10.0,SSE,8.1,-,N/A,,Clear,150,2013-02-09 18:55:00
1:15 PM,45.7,28.9,52,30.26,10.0,ESE,3.5,-,N/A,,Clear,110,2013-02-09 19:15:00
1:35 PM,45.9,28.9,52,30.25,10.0,East,5.8,-,N/A,,Clear,90,2013-02-09 19:35:00
1:55 PM,45.9,29.1,52,30.23,10.0,Calm,Calm,-,N/A,,Clear,0,2013-02-09 19:55:00
2:15 PM,46.4,29.1,51,30.23,10.0,Calm,Calm,-,N/A,,Clear,0,2013-02-09 20:15:00
2:35 PM,46.9,29.1,50,30.22,10.0,Calm,Calm,-,N/A,,Clear,0,2013-02-09 20:35:00
2:55 PM,47.7,30.2,51,30.22,10.0,East,3.5,-,N/A,,Clear,100,2013-02-09 20:55:00
3:15 PM,47.8,30.0,50,30.21,10.0,East,5.8,-,N/A,,Clear,90,2013-02-09 21:15:00
3:35 PM,47.8,30.0,50,30.19,10.0,East,8.1,-,N/A,,Clear,90,2013-02-09 21:35:00
3:55 PM,47.3,30.0,51,30.18,10.0,East,8.1,-,N/A,,Clear,100,2013-02-09 21:55:00
4:15 PM,47.3,30.0,51,30.18,10.0,East,4.6,-,N/A,,Clear,100,2013-02-09 22:15:00
4:35 PM,47.3,29.3,50,30.18,10.0,East,4.6,-,N/A,,Clear,100,2013-02-09 22:35:00
4:55 PM,46.6,29.5,51,30.17,10.0,East,3.5,-,N/A,,Clear,100,2013-02-09 22:55:00
5:15 PM,45.9,29.5,53,30.16,10.0,East,4.6,-,N/A,,Clear,100,2013-02-09 23:15:00
5:35 PM,44.6,29.7,56,30.16,10.0,East,3.5,-,N/A,,Clear,100,2013-02-09 23:35:00
5:55 PM,44.4,30.0,57,30.15,10.0,ESE,4.6,-,N/A,,Clear,110,2013-02-09 23:55:00
6:15 PM,43.3,30.2,60,30.14,10.0,East,3.5,-,N/A,,Clear,100,2013-02-10 00:15:00
6:35 PM,42.4,30.4,62,30.14,10.0,East,3.5,-,N/A,,Clear,100,2013-02-10 00:35:00
6:55 PM,43.0,31.3,63,30.13,10.0,ESE,3.5,-,N/A,,Clear,110,2013-02-10 00:55:00
7:15 PM,43.9,31.6,62,30.13,10.0,East,5.8,-,N/A,,Clear,100,2013-02-10 01:15:00
7:35 PM,44.2,32.0,62,30.12,10.0,East,6.9,-,N/A,,Clear,100,2013-02-10 01:35:00
7:55 PM,44.6,32.0,61,30.13,10.0,ESE,5.8,-,N/A,,Clear,110,2013-02-10 01:55:00
8:15 PM,44.8,32.0,61,30.12,10.0,East,4.6,-,N/A,,Scattered Clouds,100,2013-02-10 02:15:00
8:35 PM,44.6,32.0,61,30.12,10.0,East,4.6,-,N/A,,Scattered Clouds,100,2013-02-10 02:35:00
8:55 PM,44.6,32.0,61,30.12,10.0,ESE,3.5,-,N/A,,Scattered Clouds,120,2013-02-10 02:55:00
9:15 PM,44.8,32.2,61,30.12,10.0,Calm,Calm,-,N/A,,Clear,0,2013-02-10 03:15:00
9:35 PM,45.0,32.4,61,30.11,10.0,Calm,Calm,-,N/A,,Mostly Cloudy,0,2013-02-10 03:35:00
9:55 PM,44.8,32.7,63,30.10,10.0,Calm,Calm,-,N/A,,Overcast,0,2013-02-10 03:55:00
10:15 PM,45.1,33.1,63,30.09,10.0,East,3.5,-,N/A,,Light Drizzle,100,2013-02-10 04:15:00
10:35 PM,45.9,32.2,59,30.09,10.0,ESE,4.6,-,N/A,,Overcast,110,2013-02-10 04:35:00
10:55 PM,46.0,32.0,58,30.09,10.0,East,3.5,-,N/A,,Overcast,100,2013-02-10 04:55:00
11:15 PM,46.6,32.0,57,30.08,10.0,ESE,3.5,-,N/A,,Overcast,120,2013-02-10 05:15:00
11:35 PM,46.6,32.0,57,30.08,10.0,ESE,4.6,-,N/A,,Mostly Cloudy,110,2013-02-10 05:35:00
11:55 PM,45.9,32.0,58,30.06,10.0,East,3.5,-,N/A,,Scattered Clouds,90,2013-02-10 05:55:00